| time (UTC) | temp F | wind direction | speed knots | gust knots | rain 1hr in | rain 24hr in | rain mn in | humidity % | barometer mb |
| 20260503040519 | 55 | 103 | 3.5 | 7.0 | 0.00 | 0.00 | 0.00 | 94 | 1016.3 |
| 20260503035533 | 55 | 106 | 2.6 | 7.0 | 0.00 | 0.00 | 0.00 | 94 | 1016.3 |
| 20260503034549 | 55 | 101 | 3.5 | 7.8 | 0.00 | 0.00 | 0.00 | 94 | 1016.4 |
| 20260503033522 | 55 | 104 | 2.6 | 6.1 | 0.00 | 0.00 | 0.00 | 94 | 1016.4 |
| 20260503032535 | 55 | 110 | 4.3 | 7.8 | 0.00 | 0.00 | 0.00 | 94 | 1016.5 |
| 20260503031529 | 55 | 106 | 3.5 | 7.8 | 0.00 | 0.00 | 0.00 | 93 | 1016.6 |
| 20260503030523 | 55 | 103 | 3.5 | 7.8 | 0.00 | 0.00 | 0.00 | 92 | 1016.7 |
| 20260503025519 | 56 | 118 | 4.3 | 8.7 | 0.00 | 0.00 | 0.00 | 92 | 1016.8 |
| 20260503024533 | 56 | 110 | 4.3 | 7.8 | 0.00 | 0.00 | 0.00 | 91 | 1017.0 |
| 20260503023527 | 56 | 118 | 4.3 | 7.8 | 0.00 | 0.00 | 0.00 | 91 | 1016.7 |
| 20260503022541 | 56 | 102 | 4.3 | 9.6 | 0.00 | 0.00 | 0.00 | 90 | 1016.7 |
| 20260503021517 | 56 | 120 | 4.3 | 8.7 | 0.00 | 0.00 | 0.00 | 90 | 1016.7 |
| 20260503020530 | 56 | 102 | 5.2 | 8.7 | 0.00 | 0.00 | 0.00 | 91 | 1016.7 |
| 20260503015526 | 56 | 107 | 5.2 | 11.3 | 0.00 | 0.00 | 0.00 | 91 | 1016.8 |
| 20260503014520 | 56 | 110 | 4.3 | 7.8 | 0.00 | 0.00 | 0.00 | 91 | 1016.9 |
| 20260503013533 | 56 | 100 | 6.1 | 8.7 | 0.00 | 0.00 | 0.00 | 91 | 1016.9 |
| 20260503012529 | 56 | 101 | 6.1 | 9.6 | 0.00 | 0.00 | 0.00 | 91 | 1016.9 |
| 20260503011522 | 56 | 102 | 6.1 | 12.2 | 0.00 | 0.00 | 0.00 | 91 | 1016.8 |
| 20260503010517 | 56 | 113 | 5.2 | 9.6 | 0.00 | 0.00 | 0.00 | 91 | 1017.3 |
| 20260503005530 | 56 | 100 | 4.3 | 11.3 | 0.00 | 0.00 | 0.00 | 91 | 1017.4 |
| 20260503004545 | 56 | 101 | 5.2 | 11.3 | 0.00 | 0.00 | 0.00 | 91 | 1017.4 |
| 20260503003519 | 56 | 108 | 5.2 | 11.3 | 0.00 | 0.00 | 0.00 | 91 | 1017.5 |
| 20260503002533 | 56 | 110 | 4.3 | 7.8 | 0.00 | 0.00 | 0.00 | 91 | 1017.6 |
| 20260503001527 | 56 | 106 | 5.2 | 8.7 | 0.00 | 0.00 | 0.00 | 91 | 1017.7 |
| 20260503000520 | 56 | 117 | 5.2 | 12.2 | 0.00 | 0.00 | 0.00 | 91 | 1017.7 |
| 20260502235535 | 56 | 116 | 7.0 | 13.0 | 0.00 | 0.00 | 0.00 | 92 | 1018.1 |
| 20260502234530 | 56 | 112 | 6.1 | 12.2 | 0.00 | 0.00 | 0.00 | 92 | 1018.1 |
| 20260502233523 | 56 | 121 | 4.3 | 8.7 | 0.00 | 0.00 | 0.00 | 92 | 1018.1 |
| 20260502232516 | 56 | 106 | 5.2 | 8.7 | 0.00 | 0.00 | 0.00 | 92 | 1018.0 |
| 20260502231530 | 56 | 113 | 4.3 | 7.8 | 0.00 | 0.00 | 0.00 | 92 | 1018.3 |
| 20260502230547 | 56 | 112 | 2.6 | 6.1 | 0.00 | 0.00 | 0.00 | 92 | 1018.5 |
| 20260502225520 | 56 | 113 | 2.6 | 6.1 | 0.00 | 0.00 | 0.00 | 92 | 1018.4 |
| 20260502224533 | 56 | 103 | 3.5 | 7.0 | 0.00 | 0.00 | 0.00 | 91 | 1018.4 |
| 20260502223528 | 56 | 106 | 4.3 | 7.0 | 0.00 | 0.00 | 0.00 | 91 | 1018.3 |
| 20260502222523 | 57 | 103 | 3.5 | 7.0 | 0.00 | 0.00 | 0.00 | 91 | 1018.5 |
| 20260502221556 | 57 | 101 | 3.5 | 7.0 | 0.00 | 0.00 | 0.00 | 90 | 1018.3 |
| 20260502220551 | 57 | 102 | 6.1 | 9.6 | 0.00 | 0.00 | 0.00 | 90 | 1018.4 |
| 20260502215525 | 57 | 97 | 4.3 | 7.8 | 0.00 | 0.00 | 0.00 | 90 | 1018.6 |
| 20260502214519 | 58 | 85 | 3.5 | 8.7 | 0.00 | 0.00 | 0.00 | 89 | 1018.7 |
| 20260502213534 | 58 | 82 | 3.5 | 5.2 | 0.00 | 0.00 | 0.00 | 89 | 1018.5 |
| 20260502212528 | 58 | 93 | 5.2 | 7.8 | 0.00 | 0.00 | 0.00 | 89 | 1018.4 |
| 20260502211522 | 58 | 98 | 3.5 | 7.8 | 0.00 | 0.00 | 0.00 | 89 | 1018.5 |
| 20260502210518 | 58 | 107 | 5.2 | 8.7 | 0.00 | 0.00 | 0.00 | 90 | 1018.3 |
| 20260502205531 | 58 | 97 | 5.2 | 8.7 | 0.00 | 0.00 | 0.00 | 89 | 1018.2 |
| 20260502204549 | 58 | 104 | 5.2 | 9.6 | 0.00 | 0.00 | 0.00 | 89 | 1018.2 |
| 20260502203520 | 58 | 108 | 6.1 | 9.6 | 0.00 | 0.00 | 0.00 | 88 | 1018.0 |
| 20260502202535 | 59 | 111 | 7.0 | 13.0 | 0.00 | 0.00 | 0.00 | 87 | 1018.0 |
| 20260502201529 | 59 | 115 | 4.3 | 7.8 | 0.00 | 0.00 | 0.00 | 87 | 1018.0 |
| 20260502200524 | 59 | 119 | 5.2 | 7.0 | 0.00 | 0.00 | 0.00 | 87 | 1017.9 |
| 20260502195520 | 59 | 130 | 6.1 | 11.3 | 0.00 | 0.00 | 0.00 | 86 | 1017.9 |
| 20260502194532 | 59 | 121 | 6.1 | 9.6 | 0.00 | 0.00 | 0.00 | 86 | 1017.9 |
| 20260502193526 | 60 | 127 | 7.8 | 13.0 | 0.00 | 0.00 | 0.00 | 85 | 1017.8 |
| 20260502192520 | 60 | 136 | 3.5 | 7.8 | 0.00 | 0.00 | 0.00 | 84 | 1017.6 |
| 20260502191535 | 60 | 149 | 1.7 | 5.2 | 0.00 | 0.00 | 0.00 | 80 | 1017.4 |
| 20260502190530 | 61 | 153 | 3.5 | 7.8 | 0.00 | 0.00 | 0.00 | 79 | 1017.2 |
| 20260502185522 | 62 | 162 | 3.5 | 7.8 | 0.00 | 0.00 | 0.00 | 78 | 1017.4 |
| 20260502184516 | 62 | 147 | 4.3 | 7.8 | 0.00 | 0.00 | 0.00 | 76 | 1017.2 |
| 20260502183531 | 63 | 153 | 4.3 | 7.8 | 0.00 | 0.00 | 0.00 | 74 | 1017.2 |
| 20260502182526 | 64 | 149 | 4.3 | 9.6 | 0.00 | 0.00 | 0.00 | 74 | 1017.3 |
| 20260502181520 | 64 | 171 | 5.2 | 11.3 | 0.00 | 0.00 | 0.00 | 73 | 1017.4 |
| 20260502180534 | 64 | 158 | 5.2 | 13.0 | 0.00 | 0.00 | 0.00 | 73 | 1017.4 |
| 20260502163525 | 65 | 155 | 4.3 | 11.3 | 0.00 | 0.00 | 0.00 | 69 | 1017.6 |
| 20260502162520 | 66 | 154 | 6.1 | 12.2 | 0.00 | 0.00 | 0.00 | 69 | 1017.7 |
| 20260502161532 | 66 | 173 | 7.0 | 13.9 | 0.00 | 0.00 | 0.00 | 68 | 1017.7 |
| 20260502160526 | 65 | 154 | 5.2 | 9.6 | 0.00 | 0.00 | 0.00 | 69 | 1018.0 |
| 20260502151517 | 65 | 153 | 7.0 | 13.9 | 0.00 | 0.00 | 0.00 | 70 | 1018.4 |
| 20260502150552 | 65 | 150 | 6.1 | 13.9 | 0.00 | 0.00 | 0.00 | 69 | 1018.4 |
| 20260502130527 | 64 | 128 | 7.0 | 12.2 | 0.00 | 0.14 | 0.00 | 72 | 1020.1 |
| 20260502123528 | 65 | 146 | 7.0 | 13.0 | 0.00 | 0.14 | 0.00 | 70 | 1020.3 |
| 20260502122542 | 64 | 135 | 7.8 | 13.0 | 0.00 | 0.14 | 0.00 | 69 | 1020.2 |
| 20260502121516 | 64 | 133 | 7.8 | 14.8 | 0.00 | 0.14 | 0.00 | 69 | 1020.6 |
| 20260502120532 | 65 | 136 | 6.1 | 13.0 | 0.00 | 0.14 | 0.00 | 68 | 1020.5 |
| 20260502115525 | 64 | 119 | 7.0 | 14.8 | 0.00 | 0.14 | 0.00 | 69 | 1020.5 |
| 20260502114520 | 64 | 132 | 6.1 | 12.2 | 0.00 | 0.14 | 0.00 | 71 | 1020.5 |
| 20260502113554 | 63 | 129 | 7.0 | 13.0 | 0.00 | 0.14 | 0.00 | 72 | 1020.9 |
| 20260502112529 | 62 | 142 | 6.1 | 11.3 | 0.00 | 0.14 | 0.00 | 74 | 1021.1 |
| 20260502111524 | 62 | 143 | 4.3 | 7.8 | 0.00 | 0.14 | 0.00 | 75 | 1021.1 |
| 20260502110539 | 61 | 125 | 7.0 | 13.0 | 0.00 | 0.14 | 0.00 | 76 | 1021.3 |
| 20260502105534 | 61 | 107 | 6.1 | 9.6 | 0.00 | 0.14 | 0.00 | 75 | 1021.4 |
| 20260502104527 | 62 | 142 | 6.1 | 11.3 | 0.00 | 0.14 | 0.00 | 76 | 1021.4 |
| 20260502103521 | 61 | 114 | 6.1 | 11.3 | 0.00 | 0.14 | 0.00 | 76 | 1021.3 |
| 20260502102516 | 61 | 112 | 7.8 | 13.0 | 0.00 | 0.14 | 0.00 | 76 | 1021.4 |
| 20260502101530 | 62 | 102 | 6.1 | 12.2 | 0.00 | 0.14 | 0.00 | 77 | 1021.4 |
| 20260502100524 | 61 | 108 | 7.8 | 13.9 | 0.00 | 0.14 | 0.00 | 77 | 1021.5 |
| 20260502091517 | 60 | 99 | 7.0 | 11.3 | 0.00 | 0.14 | 0.00 | 81 | 1021.4 |
| 20260502090530 | 59 | 113 | 6.1 | 12.2 | 0.00 | 0.14 | 0.00 | 82 | 1021.6 |
| 20260502071528 | 57 | 113 | 5.2 | 9.6 | 0.00 | 0.14 | 0.00 | 86 | 1022.0 |
| 20260502070522 | 57 | 119 | 5.2 | 8.7 | 0.00 | 0.14 | 0.00 | 87 | 1021.9 |
| 20260502065517 | 57 | 125 | 5.2 | 8.7 | 0.00 | 0.14 | 0.00 | 87 | 1021.9 |
| 20260502064530 | 57 | 115 | 3.5 | 7.8 | 0.00 | 0.14 | 0.00 | 87 | 1021.8 |
| 20260502063545 | 56 | 103 | 5.2 | 8.7 | 0.00 | 0.14 | 0.00 | 87 | 1021.7 |
| 20260502062522 | 56 | 107 | 3.5 | 7.0 | 0.00 | 0.14 | 0.00 | 87 | 1021.5 |
| 20260502061614 | 56 | 93 | 5.2 | 7.8 | 0.00 | 0.14 | 0.00 | 88 | 1021.6 |
| 20260502060527 | 56 | 99 | 4.3 | 7.8 | 0.00 | 0.14 | 0.00 | 88 | 1021.7 |
| 20260502055522 | 56 | 104 | 5.2 | 7.8 | 0.00 | 0.14 | 0.00 | 88 | 1021.8 |
| 20260502054537 | 56 | 99 | 3.5 | 6.1 | 0.00 | 0.14 | 0.00 | 88 | 1021.8 |
| 20260502053532 | 56 | 102 | 4.3 | 7.8 | 0.00 | 0.14 | 0.00 | 88 | 1021.7 |
| 20260502052525 | 56 | 102 | 4.3 | 7.8 | 0.00 | 0.14 | 0.00 | 89 | 1021.6 |
| 20260502051519 | 56 | 104 | 5.2 | 9.6 | 0.00 | 0.14 | 0.00 | 89 | 1021.5 |
| 20260502050534 | 56 | 95 | 4.3 | 7.8 | 0.00 | 0.14 | 0.00 | 89 | 1021.5 |
| 20260502045527 | 56 | 101 | 5.2 | 8.7 | 0.00 | 0.14 | 0.00 | 89 | 1021.6 |
| 20260502044523 | 56 | 84 | 4.3 | 11.3 | 0.00 | 0.14 | 0.00 | 89 | 1021.6 |
| 20260502043517 | 55 | 108 | 6.1 | 9.6 | 0.00 | 0.14 | 0.00 | 89 | 1021.5 |
| 20260502042532 | 56 | 108 | 5.2 | 15.6 | 0.00 | 0.14 | 0.00 | 89 | 1021.9 |
| 20260502041547 | 55 | 122 | 5.2 | 11.3 | 0.00 | 0.14 | 0.00 | 89 | 1021.7 |